THORAD DELTA 1 DEB, 8595

Orbit data source: Space-Track

THORAD DELTA 1 DEB, 8595 is space debris in SSO originally from a launch on Fri, 15 Nov 1974 UTC launched from the Air Force Western Test Range (AFWTR). Debris objects in space refer to the collection of defunct objects orbiting the Earth. Examples of debris include non-operational satellites, rocket bodies, and fragments generated from explosions, collisions, or faulty payload assembly.

Loading next visibility...
Identifier
8595, 1974-089DJ
Orbit
SSO
Country
Flag of USUS
Related business
Manufacturer
Unknown
Mission
Spacecraft
Bus & Motor
Unknown
Mass
Unknown
Launch date (UTC)
1974-11-15 (51 years ago)
Launch vehicle
Unknown
Launch site
Air Force Western Test Range (AFWTR)
Object type
Payload
Rocket body
Debris
Shape & HBR
Unknown shape, 0.2 m
Radar Cross Section
Small (<0.1 m²)

Expand to show TLE details & history
Last TLE update: 9 hours ago

TLE from 9 hours ago
0 THORAD DELTA 1 DEB
1 08595U 74089DJ  26063.49800047  .00000029  00000-0  60780-3 0  9999
2 08595 101.4318 274.4615 0149023 288.0500  99.4541 12.25470786294591
Epoch: 2026-03-04T11:57Z
TLE epoch observation values (Epoch: 2026-03-04T11:57:07.240Z)
Latitude
28.59281°
Longitude
-73.37762°
Altitude
1,593.197 km
Speed
7.066 km/s
True Right ascension
17h 52m 39s
True Declination
28° 27' 49"
Sunlit
Object was in daylight at epoch
Visualization orbit readout
Latitude
Unknown
Longitude
Unknown
Altitude
Unknown
Speed
Unknown
Apparent Right ascension
Unknown
Apparent Declination
Unknown
Sunlit
N/A
Visualization observer readout
Local Sidereal Time
00:26:43
Azimuth
Unknown
Elevation
Unknown
Doppler factor
Unknown
Orbital elements
Apogee altitude
1,684.753 km
Perigee altitude
1,447.971 km
Semi-major axis
7,944.499 km
Eccentricity
0.0149
Inclination
101.4318°
RAAN
274.4615°
Arg. of periapsis
288.05°
True anomaly
101.1332°
Mean anomaly
99.4541°
Eccentric anomaly
100.29419°
Mean motion
3.06509 °/min
Orbital period
117.45 mins
BSTAR
0.0006078
Loading maneuver chart data...
Computing Atmospheric mass density...

Documentation

Showing up to 5 results
|